Regional Weather Roundup
Issued by NWS Boston, MA

Home | Current Version | Previous Version | Text Only | Print | Product List | Glossary On
Versions: 1 2 3 4 5 6 7 8 9 10 11 12 13 14 15 16 17 18 19 20 21 22 23 24 25 26 27 28 29 30 31 32 33 34 35 36 37 38 39 40 41 42 43 44 45 46 47 48 49 50
000
ASUS41 KBOX 220010
RWRBOX

REGIONAL WEATHER ROUNDUP
NATIONAL WEATHER SERVICE TAUNTON MA
700 PM EST SUN DEC 21 2014

NOTE:  "FAIR" INDICATES FEW OR NO CLOUDS BELOW 12,000 FEET WITH NO
SIGNIFICANT WEATHER AND/OR OBSTRUCTIONS TO VISIBILITY.  THE FOLLOWING
OBSERVATION LOCATIONS DO NOT REPORT PRESENT WEATHER...PROVINCETOWN...
SMITHFIELD...BLOCK ISLAND...KEENE...AND OXFORD.

MAZALL-220100-
EASTERN MASSACHUSETTS

CITY           SKY/WX    TMP DP  RH WIND       PRES   REMARKS
BOSTON         CLOUDY    34  28  79 N5        30.35R WCI  30
6HR MIN TEMP:  32; 6HR MAX TEMP:  34; 6HR PCP: TRACE;

BEVERLY        CLOUDY    33  24  69 N9        30.34R WCI  25
LAWRENCE       CLOUDY    33  24  69 N8        30.36R WCI  26
BEDFORD        CLOUDY    32  27  81 N3        30.34R
BLUE HILL        N/A     30  29  96 N7        30.30R WCI  23
NORWOOD        CLOUDY    33  29  85 NW3       30.34R
MARSHFIELD     CLOUDY    39  37  93 NE5       30.34R
PLYMOUTH       CLOUDY    35  34  96 NW5       30.32R WCI  31
TAUNTON        CLOUDY    34  32  92 N5        30.32R WCI  30
NEW BEDFORD    CLOUDY    35  33  92 N6        30.31R WCI  30
$$

MAZALL-220100-
CAPE COD AND THE ISLANDS

CITY           SKY/WX    TMP DP  RH WIND       PRES   REMARKS
FALMOUTH       CLOUDY    37  36  93 NW5       30.31R
HYANNIS        CLOUDY    41  35  79 N5        30.29R
CHATHAM        CLOUDY    42  35  76 N3        30.31R
PROVINCETOWN   CLOUDY    43  34  70 NE5       30.31S
NANTUCKET      CLOUDY    41  35  79 NE5       30.29R
MARTHAS VNYRD  CLOUDY    40  33  76 MISG      30.30R
$$

MAZALL-220100-
CENTRAL AND WESTERN MASSACHUSETTS

CITY           SKY/WX    TMP DP  RH WIND       PRES   REMARKS
WORCESTER      CLOUDY    30  27  88 NE6       30.30R WCI  24
6HR MIN TEMP:  28; 6HR MAX TEMP:  30; 6HR PCP:  0.01;

FITCHBURG      CLOUDY    33  27  78 N5        30.35R WCI  29
ORANGE         CLOUDY    32  29  88 NW3       30.33R
SPRINGFIELD    CLOUDY    32  30  91 N5        30.33R WCI  28
WESTFIELD      CLOUDY    33  30  88 N6        30.33R WCI  28
NORTH ADAMS    CLOUDY    29  25  85 W3        30.33R
PITTSFIELD     LGT SNOW  29  28  96 CALM      30.28R FOG
$$

RIZALL-220100-
RHODE ISLAND

CITY           SKY/WX    TMP DP  RH WIND       PRES   REMARKS
PROVIDENCE     CLOUDY    34  30  85 N6        30.33R WCI  29
6HR MIN TEMP:  33; 6HR MAX TEMP:  34; 6HR PCP:  0.01;

NEWPORT        CLOUDY    34  32  92 N9        30.31R WCI  27
BLOCK ISLAND   CLOUDY    37  34  87 NE10G18   30.29R WCI  30
SMITHFIELD     CLOUDY    32  23  69 N7        30.31R WCI  26
WESTERLY       CLOUDY    35  31  85 N8        30.32R WCI  29
$$

CTZALL-220100-
CONNECTICUT

CITY           SKY/WX    TMP DP  RH WIND       PRES   REMARKS
BRADLEY INTL   CLOUDY    34  30  85 N6        30.33R WCI  29
6HR MIN TEMP:  33; 6HR MAX TEMP:  34; 6HR PCP: TRACE;

HARTFORD       CLOUDY    33  30  88 N7        30.34R WCI  27
BRIDGEPORT     CLOUDY    35  33  92 N9        30.33R WCI  28
DANBURY        CLOUDY    33  28  81 N5        30.33R HAZE    WCI  29
GROTON         CLOUDY    34  32  92 N9        30.32R WCI  27
NEW HAVEN      CLOUDY    36  31  82 N12       30.32R WCI  28
CHESTER        CLOUDY    34  32  93 N7        30.31R FOG     WCI  28
MERIDEN        CLOUDY    34  30  85 VRB6      30.33R WCI  29
WILLIMANTIC    CLOUDY    34  29  82 N5        30.33R WCI  30
OXFORD         LGT SNOW  32  25  74 NE7       30.31R FOG     WCI  26
$$

MEZ002-015-021-024-NHZ003-005-008-011-012-014-VTZ005-008-220100-
NORTHERN NEW ENGLAND

CITY           SKY/WX    TMP DP  RH WIND       PRES   REMARKS
PORTLAND ME    CLOUDY    31  24  75 N5        30.37R WCI  26
6HR MIN TEMP:  29; 6HR MAX TEMP:  35; 6HR PCP: TRACE;

BANGOR ME      CLOUDY    28  25  88 N5        30.38R WCI  23
CONCORD NH     CLOUDY    31  27  85 CALM      30.35R
MANCHESTER NH  CLOUDY    33  27  78 N5        30.34R WCI  29
NASHUA NH      MOCLDY    34  28  80 CALM      30.36R
PORTSMOUTH NH  CLOUDY    32  22  67 NE6       30.35R WCI  26
JAFFREY NH     CLOUDY    30  27  88 CALM      30.31R
KEENE NH       CLOUDY    32  28  86 CALM      30.34R
BURLINGTON VT  CLOUDY    25  21  85 CALM      30.37R
MT. WASHINGTON FOG       10  10 100 W25         N/A  VSB 1/16WCI -10
$$

NYZ052-076-220100-
EASTERN NEW YORK

CITY           SKY/WX    TMP DP  RH WIND       PRES   REMARKS
ALBANY         CLOUDY    31  23  72 N3        30.37R
6HR MIN TEMP:  30; 6HR MAX TEMP:  31; 6HR PCP: TRACE;

NEW YORK CITY  CLOUDY    34  29  82 N8        30.34R WCI  27
6HR MIN TEMP:  34; 6HR MAX TEMP:  36; 6HR PCP: TRACE;

$$

ANZALL-220100-
MARINE OBSERVATIONS

STATION/POSITION TIME  TEMP    WIND        PRES    VSBY  WAVE
                       AIR SEA DIR/SP/G                  HT/PER
                 (UTC) (F)     (DEG/KT/KT) (MB)    (MI)  (FT/S)
BOSTON BUOY      2350   39 45   30/ 17/ 19 1026.8R         4/ 6
BUZZARDS BAY     2300           10/ 13/ 14 1026.2R
NANTUCKET SOUND  2350   42 44   10/ 10/ 12 1025.6R         1
MASS BAY-STELLWA 2304   38 44  360/ 14/ 17   N/A    1 7/8  3/ 5
ISLE OF SHOALS   0000   33      10/ 14/ 15 1027.2R
S OF BLOCK IS    2308      51                N/A           3/ 4
$$

......................KEY.........................
  SKY/WX - SKY CONDITION/PRESENT WEATHER
  TMP    - TEMPERATURE IN FAHRENHEIT
  DWPT   - DEWPOINT IN FAHRENHEIT
  RH     - RELATIVE HUMIDITY IN PERCENT
  WIND   - DIRECTION AND SPEED IN MPH
  PRES   - MEAN SEA LEVEL PRESSURE IN INCHES OF HG
  WCI    - WIND CHILL INDEX
  VSB    - VISIBILITY IN MILES
  HX     - HEAT INDEX
  TC     - TEMPERATURE IN CELSIUS
  VRB    - VARIABLE WIND DIRECTION
  N/A    - NOT AVAILABLE


USA.gov is the U.S. government's official web portal to all federal, state and local government web resources and services.